This is the latest recevied weather packets stored in our database for station/object KB4NWJ. If no packets are shown the sender has not sent any weather packets the latest 10 day(s).
| Time | Temp. | Humidity | Pressure | Rain* | Wind** | Luminosity | Snow |
|---|---|---|---|---|---|---|---|
| 1777457515 | 16.67° C | 99% | 1017 hPa | 0 mm | - | 0 W/m² | - |
| 1777457210 | 16.67° C | 99% | 1017.1 hPa | 0 mm | - | 0 W/m² | - |
| 1777456906 | 16.67° C | 99% | 1017.1 hPa | 0 mm | - | 0 W/m² | - |
| 1777456602 | 16.67° C | 99% | 1016.8 hPa | 0 mm | - | 0 W/m² | - |
| 1777456297 | 16.67° C | 99% | 1016.6 hPa | 1.27 mm | - | 0 W/m² | - |
| 1777455993 | 16.67° C | 99% | 1016.6 hPa | 1.27 mm | - | 0 W/m² | - |
| 1777455690 | 16.67° C | 99% | 1015.6 hPa | 1.78 mm | - | 0 W/m² | - |
| 1777455387 | 16.67° C | 99% | 1016.5 hPa | 1.78 mm | - | 0 W/m² | - |
| 1777455084 | 16.67° C | 99% | 1016.9 hPa | 0 mm | - | 0 W/m² | - |
| 1777454781 | 16.67° C | 99% | 1016.8 hPa | 0 mm | - | 0 W/m² | - |
| 1777454475 | 16.67° C | 99% | 1016.9 hPa | 1.27 mm | - | 0 W/m² | - |
| 1777454173 | 16.67° C | 99% | 1016.9 hPa | 1.27 mm | - | 0 W/m² | - |
| 1777453870 | 16.67° C | 99% | 1017.3 hPa | 0 mm | - | 0 W/m² | - |
| 1777453567 | 16.67° C | 99% | 1017.4 hPa | 0 mm | - | 0 W/m² | - |
| 1777453263 | 16.67° C | 99% | 1017.4 hPa | 0 mm | - | 0 W/m² | - |
| 1777452960 | 16.67° C | 99% | 1017.1 hPa | 1.78 mm | - | 0 W/m² | - |
| 1777452658 | 16.67° C | 99% | 1017.5 hPa | 1.78 mm | - | 0 W/m² | - |
| 1777452353 | 16.67° C | 99% | 1017.7 hPa | 3.05 mm | - | 0 W/m² | - |
| 1777452049 | 16.67° C | 99% | 1018.1 hPa | 6.1 mm | - | 0 W/m² | - |
| 1777451745 | 16.67° C | 99% | 1018.1 hPa | 7.87 mm | - | 0 W/m² | - |
| 1777451441 | 16.67° C | 99% | 1018.2 hPa | 7.87 mm | - | 0 W/m² | - |
| 1777451137 | 16.67° C | 99% | 1018.3 hPa | 8.89 mm | - | 0 W/m² | - |
| 1777450833 | 16.67° C | 99% | 1017.9 hPa | 10.16 mm | - | 0 W/m² | - |
| 1777450528 | 16.67° C | 99% | 1018.3 hPa | 8.89 mm | - | 0 W/m² | - |
| 1777450225 | 16.67° C | 99% | 1018.1 hPa | 9.65 mm | - | 0 W/m² | - |
* Rain latest hour (hover to see other rain measurements)
** Current wind speed in m/s (hover to see current wind gust speed)